EW1036 Weather Reports


Display with metric or nautical units.
time (UTC)temp
F
wind
direction
speed
MPH
gust
MPH
rain 1hr
in
rain 24hr
in
rain mn
in
humidity
%
barometer
mb
20260508122033 53 0 0.0 3.0 0.00 0.42 0.03 95 1016.6
20260508121551 53 0 0.0 3.0 0.00 0.42 0.03 95 1016.6
20260508121032 53 0 0.0 3.0 0.00 0.42 0.03 95 1016.6
20260508120532 53 0 0.0 3.0 0.00 0.42 0.03 95 1016.6
20260508120043 53 0 0.0 1.0 0.00 0.42 0.03 95 1016.5
20260508115533 53 0 0.0 1.0 0.00 0.63 0.03 95 1016.3
20260508115033 53 0 0.0 1.0 0.00 0.63 0.03 95 1016.1
20260508114543 52 0 0.0 1.0 0.00 0.63 0.03 95 1016.1
20260508114033 52 0 0.0 0.0 0.00 0.63 0.03 95 1016.3
20260508113534 52 0 0.0 0.0 0.00 0.63 0.03 95 1016.1
20260508113047 52 0 0.0 0.0 0.00 0.63 0.03 95 1016.1
20260508112533 52 0 0.0 1.0 0.00 0.63 0.03 95 1015.9
20260508112033 52 0 0.0 1.0 0.00 0.63 0.03 95 1015.9
20260508111554 52 0 0.0 0.0 0.00 0.63 0.03 95 1015.8
20260508111033 52 0 0.0 0.0 0.00 0.63 0.03 95 1015.8
20260508110535 52 0 0.0 0.0 0.00 0.63 0.03 95 1015.7
20260508110050 52 0 0.0 3.0 0.00 0.63 0.03 94 1015.7
20260508105539 52 0 0.0 3.0 0.00 0.72 0.03 95 1015.5
20260508105034 52 91 0.0 3.0 0.00 0.72 0.03 94 1015.5
20260508104544 52 0 0.0 2.0 0.00 0.72 0.03 94 1015.3
20260508104032 52 81 0.0 2.0 0.00 0.72 0.03 95 1015.1
20260508103534 52 0 0.0 2.0 0.00 0.72 0.03 95 1015.0
20260508103042 52 0 0.0 2.0 0.00 0.72 0.03 95 1014.9
20260508102533 52 0 0.0 2.0 0.00 0.72 0.03 95 1015.0
20260508102033 52 0 0.0 2.0 0.00 0.72 0.03 95 1015.0
20260508101547 52 0 0.0 2.0 0.00 0.72 0.03 95 1014.8
20260508101035 52 0 0.0 2.0 0.00 0.72 0.03 95 1014.8
20260508100533 52 0 0.0 1.0 0.00 0.72 0.03 95 1014.8
20260508100046 52 0 0.0 2.0 0.00 0.72 0.03 95 1014.8
20260508095535 52 0 0.0 3.0 0.00 0.72 0.03 95 1014.7
20260508095034 52 0 0.0 3.0 0.00 0.72 0.03 95 1014.6
20260508094547 52 0 0.0 3.0 0.00 0.72 0.03 95 1014.5
20260508094035 52 0 0.0 0.0 0.00 0.72 0.03 95 1014.5
20260508093534 52 0 0.0 1.0 0.00 0.72 0.03 95 1014.4
20260508093044 52 0 0.0 1.0 0.00 0.72 0.03 95 1014.3
20260508092534 52 0 0.0 1.0 0.00 0.72 0.03 94 1014.2
20260508092036 52 0 0.0 1.0 0.00 0.72 0.03 94 1014.2
20260508091543 52 0 0.0 2.0 0.00 0.72 0.03 94 1014.2
20260508091033 52 0 0.0 2.0 0.00 0.72 0.03 94 1014.2
20260508090533 52 0 0.0 3.0 0.00 0.72 0.03 94 1014.0
20260508090037 52 0 0.0 4.0 0.00 0.72 0.03 94 1013.9
20260508085533 52 5 0.0 4.0 0.00 0.72 0.03 94 1013.8
20260508085033 52 0 0.0 2.0 0.00 0.72 0.03 94 1013.5
20260508084543 52 0 0.0 1.0 0.00 0.72 0.03 94 1013.5
20260508084034 52 0 0.0 2.0 0.00 0.72 0.03 94 1013.4
20260508083533 52 0 0.0 2.0 0.00 0.72 0.03 94 1013.6
20260508083044 52 0 0.0 3.0 0.01 0.72 0.03 94 1013.3
20260508082536 52 0 0.0 3.0 0.01 0.72 0.03 94 1013.3
20260508082031 52 0 0.0 1.0 0.01 0.72 0.03 94 1013.2
20260508081548 52 0 0.0 2.0 0.01 0.72 0.03 94 1013.1
20260508081034 52 0 0.0 2.0 0.01 0.72 0.03 94 1013.3
20260508080533 52 54 0.0 2.0 0.01 0.72 0.03 94 1013.2
20260508080055 52 0 0.0 1.0 0.01 0.72 0.03 94 1013.2
20260508075532 52 0 0.0 0.0 0.01 0.80 0.03 94 1013.1
20260508075033 52 0 0.0 0.0 0.01 0.80 0.03 94 1013.0
20260508074541 52 0 0.0 0.0 0.01 0.80 0.03 94 1013.2
20260508074032 52 0 0.0 0.0 0.01 0.80 0.03 94 1013.3
20260508073532 52 0 0.0 0.0 0.01 0.80 0.03 94 1013.3
20260508073044 52 0 0.0 0.0 0.00 0.79 0.02 94 1013.3
20260508072532 52 0 0.0 0.0 0.00 0.79 0.02 94 1013.5
20260508072032 52 0 0.0 0.0 0.00 0.79 0.02 94 1013.4
20260508071544 52 0 0.0 0.0 0.00 0.79 0.02 94 1013.5
20260508071108 52 0 0.0 0.0 0.00 0.79 0.02 94 1013.3
20260508070534 52 0 0.0 0.0 0.00 0.79 0.02 94 1013.4
20260508070042 52 0 0.0 0.0 0.00 0.79 0.02 94 1013.3
20260508065533 52 0 0.0 0.0 0.00 0.89 0.02 94 1013.2
20260508065032 52 0 0.0 0.0 0.00 0.89 0.02 94 1013.1
20260508064543 53 0 0.0 0.0 0.00 0.89 0.02 94 1013.1
20260508064034 53 0 0.0 0.0 0.00 0.89 0.02 94 1012.9
20260508063533 53 0 0.0 0.0 0.00 0.89 0.02 93 1012.8
20260508063042 53 0 0.0 0.0 0.00 0.89 0.02 93 1013.0
20260508062533 53 0 0.0 0.0 0.00 0.89 0.02 93 1012.9
20260508062033 53 0 0.0 0.0 0.00 0.89 0.02 93 1012.9
20260508061541 53 0 0.0 0.0 0.00 0.89 0.02 93 1012.9
20260508061033 53 0 0.0 0.0 0.00 0.89 0.02 93 1012.7
20260508060533 53 0 0.0 0.0 0.00 0.89 0.02 93 1012.7
20260508060039 53 0 0.0 0.0 0.00 0.89 0.02 93 1012.7
20260508055533 53 0 0.0 0.0 0.00 0.89 0.02 93 1012.9
20260508055033 53 0 0.0 0.0 0.00 0.89 0.02 93 1012.9
20260508054546 53 0 0.0 0.0 0.00 0.89 0.02 93 1012.8
20260508054032 54 0 0.0 0.0 0.01 0.89 0.02 93 1012.8
20260508053533 54 0 0.0 1.0 0.01 0.89 0.02 93 1012.9
20260508053049 54 0 0.0 1.0 0.01 0.89 0.02 94 1012.9
20260508052532 54 0 0.0 2.0 0.01 0.89 0.02 94 1013.0
20260508052036 54 0 0.0 2.0 0.01 0.89 0.02 94 1012.8
20260508051542 54 0 0.0 3.0 0.02 0.89 0.02 94 1012.9
20260508051034 54 0 0.0 3.0 0.02 0.89 0.02 94 1012.8
20260508050533 54 61 0.0 0.0 0.02 0.89 0.02 93 1013.0
20260508050043 54 0 0.0 1.0 0.02 0.89 0.02 93 1013.5
20260508045533 54 0 0.0 1.0 0.02 0.89 0.02 93 1012.5
20260508045033 54 0 0.0 1.0 0.02 0.89 0.02 93 1012.5
20260508044601 54 0 0.0 0.0 0.01 0.88 0.01 93 1012.7
20260508044033 54 0 0.0 0.0 0.01 0.88 0.01 93 1012.6
20260508043533 54 0 0.0 0.0 0.01 0.88 0.01 93 1012.4
20260508043046 54 0 0.0 0.0 0.01 0.88 0.01 93 1012.5
20260508042533 54 0 0.0 2.0 0.01 0.88 0.01 93 1012.2
20260508042032 54 0 0.0 4.0 0.01 0.88 0.01 93 1011.8
20260508041542 54 0 1.0 4.0 0.02 0.87 0.00 93 1011.9
20260508041032 54 50 0.0 2.0 0.11 0.87 0.00 93 1012.1
20260508040533 54 0 0.0 0.0 0.13 0.87 0.00 92 1012.5
20260508040045 54 0 0.0 0.0 0.13 0.87 0.00 92 1012.3
20260508035532 55 0 0.0 0.0 0.13 0.87 0.87 92 1012.2
20260508035034 55 0 0.0 0.0 0.13 0.87 0.87 92 1012.2
20260508034552 55 0 0.0 0.0 0.13 0.87 0.87 92 1012.2
20260508034033 55 0 0.0 0.0 0.13 0.87 0.87 92 1012.2
20260508033536 55 0 0.0 0.0 0.13 0.87 0.87 92 1012.4
20260508033044 55 0 0.0 3.0 0.13 0.87 0.87 92 1012.4
20260508032535 55 0 0.0 3.0 0.13 0.87 0.87 92 1012.2
20260508032033 55 0 0.0 3.0 0.12 0.86 0.86 92 1011.4
20260508031542 55 0 1.0 3.0 0.11 0.85 0.85 92 1011.1
20260508031033 55 0 0.0 3.0 0.01 0.75 0.75 91 1012.9
20260508030532 55 59 0.0 3.0 0.00 0.74 0.74 91 1012.3
20260508030045 55 0 0.0 3.0 0.00 0.74 0.74 90 1011.0
20260508025532 55 0 0.0 2.0 0.00 0.74 0.74 91 1010.9
20260508025032 55 0 0.0 0.0 0.00 0.74 0.74 91 1011.0
20260508024546 55 0 0.0 4.0 0.00 0.74 0.74 91 1011.1
20260508024035 55 0 0.0 4.0 0.00 0.74 0.74 91 1011.3
20260508023532 55 97 0.0 4.0 0.00 0.74 0.74 91 1011.5
20260508023044 55 36 0.0 4.0 0.00 0.74 0.74 91 1011.5
20260508022533 55 0 0.0 5.0 0.00 0.74 0.74 91 1011.4
20260508022034 55 0 1.0 5.0 0.00 0.74 0.74 91 1011.3
20260508021542 55 0 0.0 4.0 0.00 0.74 0.74 91 1011.3
20260508021032 55 55 0.0 5.0 0.00 0.74 0.74 91 1011.4
20260508020532 55 19 0.0 5.0 0.00 0.74 0.74 91 1011.2
20260508020046 55 53 2.0 6.0 0.00 0.74 0.74 91 1011.1
20260508015533 55 49 1.0 6.0 0.00 0.74 0.74 91 1011.0
20260508015032 56 63 1.0 7.0 0.00 0.74 0.74 91 1011.0
20260508014542 56 258 0.0 7.0 0.00 0.74 0.74 91 1010.8
20260508014032 56 0 1.0 8.0 0.00 0.74 0.74 91 1010.8
20260508013532 56 78 1.0 8.0 0.00 0.74 0.74 91 1010.8
20260508013042 56 209 1.0 5.0 0.00 0.74 0.74 91 1010.5
20260508012532 56 0 1.0 7.0 0.00 0.74 0.74 91 1010.4
20260508012034 56 0 0.0 7.0 0.00 0.74 0.74 91 1010.2
20260508011545 56 72 1.0 4.0 0.00 0.74 0.74 91 1010.1
20260508011032 56 0 0.0 4.0 0.00 0.74 0.74 90 1010.2
20260508010534 56 0 0.0 3.0 0.00 0.74 0.74 90 1010.1
20260508010049 56 0 0.0 5.0 0.00 0.74 0.74 90 1009.8
20260508005536 56 0 0.0 7.0 0.00 0.74 0.74 90 1009.8
20260508005034 56 66 0.0 7.0 0.00 0.74 0.74 90 1009.7
20260508004548 57 64 1.0 6.0 0.00 0.74 0.74 90 1009.5
20260508004033 57 65 0.0 8.0 0.00 0.74 0.74 90 1009.5
20260508003532 57 78 2.0 8.0 0.00 0.74 0.74 90 1009.4
20260508003041 57 0 2.0 8.0 0.00 0.74 0.74 90 1009.5
20260508002533 57 213 2.0 10.0 0.00 0.74 0.74 89 1009.4
20260508002033 57 66 1.0 10.0 0.00 0.74 0.74 89 1009.4
20260508001543 57 128 3.0 8.0 0.00 0.74 0.74 89 1009.3
20260508001032 58 70 2.0 7.0 0.00 0.74 0.74 89 1009.0
20260508000535 58 54 2.0 7.0 0.00 0.74 0.74 89 1009.0
20260508000047 58 121 1.0 10.0 0.00 0.74 0.74 89 1009.1
20260507235532 59 0 2.0 10.0 0.00 0.74 0.74 89 1009.2
20260507235033 59 172 2.0 10.0 0.00 0.74 0.74 89 1009.1
20260507234549 59 0 1.0 9.0 0.00 0.74 0.74 89 1009.0
20260507234032 60 58 1.0 10.0 0.00 0.74 0.74 88 1008.8
20260507233533 60 38 2.0 10.0 0.00 0.74 0.74 88 1008.9
20260507233046 61 74 1.0 8.0 0.00 0.74 0.74 88 1008.6
20260507232533 62 78 2.0 8.0 0.00 0.74 0.74 88 1008.8
20260507232034 62 0 2.0 7.0 0.00 0.74 0.74 88 1008.7
20260507231548 63 65 2.0 7.0 0.00 0.74 0.74 87 1008.3
20260507231035 64 32 2.0 6.0 0.00 0.74 0.74 86 1008.2
20260507230532 65 0 1.0 6.0 0.00 0.74 0.74 87 1008.0
20260507230050 66 38 1.0 6.0 0.00 0.74 0.74 88 1007.8
20260507225534 67 77 2.0 8.0 0.00 0.74 0.74 89 1007.6
20260507225032 68 110 2.0 8.0 0.00 0.74 0.74 90 1007.5
20260507224549 70 0 1.0 4.0 0.00 0.74 0.74 93 1007.5
20260507224034 70 0 0.0 4.0 0.00 0.74 0.74 94 1007.3
20260507223532 70 0 0.0 4.0 0.00 0.74 0.74 94 1007.4
20260507223045 70 0 0.0 1.0 0.00 0.74 0.74 94 1007.4
20260507222534 70 0 0.0 0.0 0.00 0.74 0.74 94 1007.3
20260507222032 70 0 0.0 0.0 0.00 0.74 0.74 94 1007.3
20260507221545 70 0 0.0 0.0 0.00 0.74 0.74 94 1007.2
20260507221035 70 0 0.0 0.0 0.00 0.74 0.74 94 1007.2
20260507220532 70 0 0.0 0.0 0.00 0.74 0.74 94 1007.3
20260507220041 70 0 0.0 0.0 0.00 0.74 0.74 94 1007.2
20260507215534 70 0 0.0 0.0 0.00 0.74 0.74 94 1007.4
20260507215033 70 0 0.0 0.0 0.00 0.74 0.74 94 1007.3
20260507214541 70 0 0.0 0.0 0.00 0.74 0.74 94 1007.2
20260507214032 70 0 0.0 1.0 0.00 0.74 0.74 94 1007.0
20260507213532 69 0 0.0 1.0 0.00 0.74 0.74 94 1007.0
20260507213043 69 0 0.0 0.0 0.00 0.74 0.74 93 1006.9
20260507212533 69 0 0.0 0.0 0.00 0.74 0.74 93 1006.9
20260507212036 69 0 0.0 0.0 0.00 0.74 0.74 93 1006.8
20260507211542 69 0 0.0 0.0 0.00 0.74 0.74 93 1006.7
20260507211031 69 0 0.0 0.0 0.00 0.74 0.74 93 1006.8
20260507210533 69 0 0.0 0.0 0.00 0.74 0.74 93 1006.6
20260507210043 69 0 0.0 0.0 0.00 0.74 0.74 93 1006.6
20260507205533 69 0 0.0 0.0 0.00 0.74 0.74 93 1006.6
20260507205032 69 0 0.0 0.0 0.00 0.74 0.74 93 1006.6
20260507204540 69 0 0.0 0.0 0.00 0.74 0.74 93 1006.6
20260507204032 69 0 0.0 0.0 0.00 0.74 0.74 93 1006.8
20260507203532 69 0 0.0 0.0 0.00 0.74 0.74 93 1006.7
20260507203047 70 0 0.0 1.0 0.00 0.74 0.74 93 1006.9
20260507202535 70 0 0.0 3.0 0.00 0.74 0.74 93 1007.0
20260507202032 70 0 0.0 3.0 0.00 0.74 0.74 93 1007.0
20260507201541 70 0 0.0 3.0 0.00 0.74 0.74 93 1007.0
20260507201032 70 0 0.0 0.0 0.00 0.74 0.74 93 1007.1
20260507200532 70 0 0.0 0.0 0.00 0.74 0.74 93 1007.1
20260507200049 70 0 0.0 1.0 0.00 0.74 0.74 93 1007.2
20260507195532 70 0 0.0 1.0 0.00 0.74 0.74 93 1007.2
20260507195032 70 0 0.0 1.0 0.00 0.74 0.74 93 1007.1
20260507194542 70 0 0.0 1.0 0.00 0.74 0.74 93 1007.2
20260507194031 70 0 0.0 0.0 0.00 0.74 0.74 94 1007.4
20260507193531 70 0 0.0 0.0 0.00 0.74 0.74 94 1007.3
20260507193041 70 0 0.0 0.0 0.00 0.74 0.74 94 1007.3
20260507192531 70 0 0.0 0.0 0.00 0.74 0.74 94 1007.4
20260507192032 70 0 0.0 0.0 0.00 0.74 0.74 94 1007.3
20260507191543 70 0 0.0 1.0 0.01 0.74 0.74 94 1007.6
20260507191034 70 0 0.0 1.0 0.01 0.74 0.74 94 1007.6
20260507190532 70 0 0.0 3.0 0.01 0.74 0.74 94 1007.7
20260507190039 70 0 0.0 4.0 0.01 0.74 0.74 94 1007.7
20260507185532 70 0 0.0 4.0 0.01 0.74 0.74 93 1007.9
20260507185032 70 0 1.0 4.0 0.03 0.74 0.74 93 1008.0
20260507184544 71 0 0.0 5.0 0.03 0.74 0.74 94 1008.0
20260507184031 71 0 0.0 5.0 0.05 0.74 0.74 94 1008.2
20260507183532 71 0 1.0 5.0 0.07 0.74 0.74 94 1008.2
20260507183046 70 0 0.0 3.0 0.08 0.74 0.74 95 1008.2
20260507182532 70 213 0.0 2.0 0.12 0.74 0.74 95 1008.3
20260507182032 70 0 0.0 1.0 0.16 0.74 0.74 95 1008.3
20260507181550 70 0 0.0 0.0 0.17 0.73 0.73 95 1008.5
20260507181034 70 0 0.0 0.0 0.18 0.73 0.73 94 1008.8
20260507180532 70 0 0.0 0.0 0.20 0.73 0.73 94 1008.6
20260507180044 70 0 0.0 2.0 0.20 0.73 0.73 94 1008.8
20260507175532 70 0 0.0 2.0 0.21 0.73 0.73 94 1009.0
20260507175032 70 0 0.0 3.0 0.19 0.71 0.71 94 1009.2
20260507174550 70 0 0.0 3.0 0.19 0.71 0.71 94 1009.3
20260507174031 70 0 0.0 0.0 0.16 0.68 0.68 94 1009.5
20260507173532 70 0 0.0 1.0 0.16 0.67 0.67 94 1009.7
20260507173048 70 0 0.0 1.0 0.15 0.66 0.66 94 1009.9
20260507172532 70 0 0.0 1.0 0.11 0.61 0.61 94 1010.1
20260507172031 70 0 0.0 2.0 0.08 0.58 0.58 94 1010.2
20260507171603 70 0 0.0 2.0 0.06 0.56 0.56 94 1010.1
20260507171033 71 0 0.0 2.0 0.05 0.55 0.55 94 1009.9
20260507170532 71 0 0.0 1.0 0.03 0.52 0.52 94 1009.9
20260507170045 71 0 0.0 1.0 0.03 0.52 0.52 94 1009.8
20260507165531 71 0 0.0 0.0 0.02 0.52 0.52 94 1009.6
20260507165033 71 0 0.0 4.0 0.02 0.52 0.52 94 1009.6
20260507164558 71 0 0.0 4.0 0.02 0.52 0.52 95 1009.9
20260507164031 71 0 0.0 2.0 0.02 0.52 0.52 95 1009.9
20260507163532 71 59 0.0 2.0 0.01 0.51 0.51 95 1010.0
20260507163049 72 0 0.0 1.0 0.01 0.51 0.51 95 1009.8
20260507162531 72 0 0.0 1.0 0.00 0.50 0.50 95 1009.9
20260507162032 72 0 0.0 1.0 0.00 0.50 0.50 95 1010.0
20260507161550 72 0 0.0 1.0 0.00 0.50 0.50 95 1010.1
20260507161034 72 0 0.0 1.0 0.00 0.50 0.50 95 1010.2
20260507160532 72 0 0.0 1.0 0.00 0.50 0.50 95 1010.2
20260507160045 72 0 0.0 0.0 0.00 0.50 0.50 95 1010.4
20260507155533 72 0 0.0 0.0 0.00 0.50 0.50 95 1010.4
20260507155032 72 0 0.0 0.0 0.00 0.50 0.50 95 1010.3
20260507154542 72 0 0.0 0.0 0.00 0.50 0.50 95 1010.2
20260507154031 72 0 0.0 0.0 0.00 0.50 0.50 95 1010.3
20260507153531 72 0 0.0 2.0 0.00 0.50 0.50 95 1010.3
20260507153049 72 0 0.0 2.0 0.00 0.50 0.50 96 1010.3
20260507152532 72 0 0.0 2.0 0.00 0.50 0.50 96 1010.2
20260507152032 72 0 0.0 0.0 0.00 0.50 0.50 96 1010.0
20260507151545 72 0 0.0 0.0 0.00 0.50 0.50 96 1009.9
20260507151032 71 0 0.0 0.0 0.00 0.50 0.50 96 1009.9
20260507150532 71 0 0.0 0.0 0.00 0.50 0.50 95 1009.8
20260507150043 71 0 0.0 0.0 0.00 0.50 0.50 95 1009.9
20260507145532 71 0 0.0 0.0 0.00 0.50 0.50 95 1009.8
20260507145032 71 0 0.0 0.0 0.00 0.50 0.50 95 1009.8
20260507144541 71 0 0.0 0.0 0.00 0.50 0.50 95 1009.9
20260507144033 71 0 0.0 0.0 0.00 0.50 0.50 95 1010.1
20260507143532 71 0 0.0 0.0 0.00 0.50 0.50 95 1010.1
20260507143046 71 0 0.0 0.0 0.00 0.50 0.50 95 1010.2
20260507142532 71 0 0.0 0.0 0.00 0.50 0.50 95 1010.0
20260507142032 71 0 0.0 0.0 0.00 0.50 0.50 95 1009.9
20260507141553 71 0 0.0 0.0 0.00 0.50 0.50 95 1009.5
20260507141033 70 0 0.0 0.0 0.00 0.50 0.50 95 1009.4
20260507140532 70 0 0.0 0.0 0.00 0.50 0.50 95 1009.6
20260507140045 70 0 0.0 0.0 0.00 0.50 0.50 95 1009.7
20260507135532 70 0 0.0 1.0 0.01 0.50 0.50 95 1009.9
20260507135034 70 0 0.0 1.0 0.01 0.50 0.50 95 1010.1
20260507134554 70 0 0.0 1.0 0.01 0.50 0.50 95 1010.2
20260507134032 70 0 0.0 1.0 0.01 0.50 0.50 95 1010.2
20260507133532 70 0 0.0 1.0 0.01 0.50 0.50 95 1010.3
20260507133042 70 0 0.0 0.0 0.01 0.50 0.50 95 1010.4
20260507132534 70 0 0.0 1.0 0.01 0.50 0.50 95 1010.6
20260507132036 70 0 0.0 1.0 0.02 0.50 0.50 95 1010.5
20260507131544 70 0 0.0 1.0 0.02 0.50 0.50 95 1010.7
20260507131035 70 0 0.0 1.0 0.02 0.50 0.50 95 1010.8
20260507130538 70 0 0.0 1.0 0.02 0.50 0.50 95 1010.9
20260507130054 70 0 0.0 2.0 0.02 0.50 0.50 95 1011.0
20260507125534 70 0 0.0 2.0 0.02 0.49 0.49 95 1010.9
20260507125034 70 56 0.0 1.0 0.02 0.49 0.49 95 1011.0
20260507124544 70 0 0.0 0.0 0.03 0.49 0.49 95 1010.9
20260507124034 70 0 0.0 1.0 0.03 0.49 0.49 95 1010.9
20260507123534 70 0 0.0 1.0 0.04 0.49 0.49 95 1011.0
20260507123049 70 0 0.0 0.0 0.04 0.49 0.49 95 1011.3
20260507122533 69 0 0.0 0.0 0.05 0.49 0.49 94 1011.5